Temp
48 48 49 49 50 50 50 50 50 51 51 51 51 51 51 52 52 50 47 50 45 39 41 47 49 44 44 43 39 44 43 41 37 34 33 32 34 41 41 48 41 37 32 32 35 32 31 54 53 44 46 51 53 51
48 48 48 49 49 49 49 50 50 50 50 51 51 51 51 51 51 52 45 51 50 43 38 45 49 52 50 49 43 43 45 45 43 35 36 38 34 39 39 30 49 34 40 34 37 37 50 55 52 54 54 51 51 49
49 48 48 48 49 50 50 50 50 50 50 50 50 51 51 51 52 51 47 48 46 39 37 38 43 49 54 55 54 41 43 48 46 49 43 40 37 41 31 36 43 48 52 41 43 49 51 53 56 56 56 53 53 51
49 49 49 48 48 49 49 49 49 49 50 50 50 50 50 51 52 52 46 48 46 39 34 35 49 45 53 54 54 54 49 50 50 48 43 34 34 46 38 41 40 44 50 47 43 49 53 55 56 55 54 55 51 50
48 48 48 49 49 49 49 49 49 49 49 50 50 50 50 51 51 50 46 47 48 41 32 33 42 47 51 50 51 52 50 47 44 42 39 38 43 43 39 39 34 47 45 36 35 51 48 50 54 57 52 50 49 48
48 48 48 48 49 49 49 49 49 49 49 49 50 50 50 50 50 45 39 45 48 46 34 29 39 41 45 47 47 48 47 47 46 43 40 44 48 40 31 29 47 51 53 53 48 54 52 53 55 58 52 50 50 48
48 48 48 48 48 48 48 48 49 49 49 49 49 50 50 50 48 43 37 43 50 45 34 32 32 39 44 46 44 43 46 43 43 39 35 39 40 41 29 30 47 51 53 52 55 52 46 50 50 55 55 52 50 49
48 48 48 48 48 48 48 48 48 49 49 49 50 50 50 50 49 44 45 49 50 40 37 31 32 32 41 35 34 42 36 41 39 38 38 38 40 36 31 43 48 51 53 54 55 55 51 53 54 53 52 49 46 44
48 48 48 48 48 48 48 48 48 49 50 50 50 50 47 44 40 40 49 50 47 40 32 32 31 27 40 38 38 39 40 32 41 31 36 39 31 32 40 46 48 50 50 52 53 53 53 50 51 52 48 45 44 42
47 47 47 47 47 48 48 48 48 49 49 48 45 39 32 39 51 48 43 38 38 38 37 33 36 32 37 36 35 34 36 33 31 35 42 32 36 46 49 49 50 51 52 53 47 46 46 46 48 49 48 47 45 43
47 47 47 47 47 47 48 48 48 49 48 42 32 33 41 51 42 36 32 32 32 29 34 34 38 31 39 33 33 36 33 33 29 32 33 29 29 39 48 49 52 54 55 54 53 51 50 49 47 45 44 44 43 40
48 48 47 47 48 48 48 48 48 46 42 38 41 45 43 38 33 30 29 31 30 28 34 34 36 36 36 40 33 34 32 33 28 37 28 25 33 47 48 50 51 52 52 52 54 53 52 51 50 46 42 42 41 40
47 47 48 48 48 48 48 48 49 48 45 43 41 34 33 32 28 26 23 28 27 31 36 37 34 35 36 38 33 34 30 27 37 25 27 30 40 47 48 49 49 50 50 50 50 50 49 47 47 42 42 42 39 37
46 47 47 48 48 48 48 48 49 47 44 34 32 27 27 26 27 28 31 33 33 35 39 41 38 34 37 32 33 30 32 33 22 23 27 30 42 47 48 48 48 48 48 47 46 45 45 44 42 40 41 39 36 32
46 46 46 47 48 48 48 48 49 47 38 33 32 26 26 31 31 36 39 40 40 44 43 40 37 36 32 30 32 33 28 26 29 27 32 37 45 46 46 47 46 45 42 43 43 40 30 30 35 31 33 36 32 28
47 46 45 46 47 48 48 48 46 39 36 34 33 29 31 31 30 32 34 36 43 46 45 39 34 32 30 32 29 28 29 27 29 32 36 41 44 46 46 47 46 45 44 42 37 35 32 30 32 31 30 30 28 27
46 43 47 46 46 46 47 44 34 32 33 32 31 32 30 33 35 36 40 39 48 42 35 31 30 30 33 28 29 30 27 35 31 36 38 44 45 46 46 43 39 42 42 37 34 32 32 33 31 30 28 28 29 27
43 46 47 47 46 44 35 34 32 32 31 33 32 32 35 33 34 35 36 43 45 43 40 34 36 31 27 29 29 33 36 36 37 37 39 43 47 46 44 41 39 41 39 34 33 33 32 32 30 29 29 29 27 27
46 46 47 47 44 36 32 33 37 32 32 34 34 36 37 39 39 42 44 48 48 49 41 38 34 31 33 33 33 32 34 36 37 38 40 45 45 41 40 39 38 38 35 34 32 32 32 32 31 29 29 28 26 26
47 47 46 45 47 38 32 33 40 35 32 34 38 36 36 37 41 39 42 45 46 44 36 37 37 34 34 36 38 38 38 39 38 36 32 32 33 38 37 36 35 36 34 33 32 30 31 30 30 30 30 28 27 26
45 45 45 46 41 41 37 36 35 36 36 33 37 38 33 37 34 34 37 41 34 37 32 35 36 35 42 37 43 43 42 45 40 39 38 33 36 36 35 35 36 34 32 32 31 30 29 29 30 31 28 25 26 28
42 46 42 43 38 38 36 39 35 37 35 35 37 37 34 33 33 35 39 36 37 36 39 38 38 39 35 39 39 46 44 42 40 37 35 37 35 34 33 34 33 29 30 30 32 30 30 30 32 31 26 27 27 28
44 43 40 38 34 34 32 39 34 36 31 32 35 32 31 30 33 41 34 34 34 38 42 43 45 45 41 42 44 45 43 41 37 36 36 35 35 35 34 34 33 31 30 28 30 30 28 29 30 30 30 28 28 26
43 36 33 32 33 30 34 33 36 35 34 33 32 31 32 32 35 33 32 31 34 39 39 41 42 39 39 41 38 38 39 40 37 36 36 36 34 34 34 34 34 33 33 31 31 28 28 30 31 30 29 27 26 24
34 31 32 30 33 31 30 31 31 31 27 31 30 28 30 33 30 28 29 30 35 36 37 39 38 40 37 38 37 37 39 37 36 35 36 36 35 34 33 33 33 33 33 30 28 29 30 31 30 29 28 26 23 19
29 28 31 31 31 30 30 27 27 29 30 28 31 32 32 29 25 26 31 34 33 34 36 39 40 37 37 37 36 36 37 38 38 36 36 36 36 36 32 30 27 26 30 33 32 30 29 29 28 27 25 22 20 20
24 27 33 41 36 36 33 34 35 31 25 25 30 28 29 27 25 30 30 31 31 32 34 37 37 37 37 37 36 35 36 37 37 36 36 36 35 35 35 32 29 30 33 33 33 31 30 29 27 26 23 21 22 22
31 34 28 32 34 34 28 28 28 27 30 33 31 24 25 26 27 30 31 32 32 34 33 33 35 36 35 34 34 35 33 32 31 32 32 31 29 27 28 28 31 33 33 33 33 32 30 28 27 25 24 22 20 18
30 33 32 24 27 29 28 30 29 30 32 34 28 27 27 28 29 29 30 31 33 31 28 28 28 30 32 33 33 32 32 34 29 23 22 23 25 27 25 32 32 32 32 30 28 28 27 27 26 25 22 22 20 18
29 35 29 29 28 27 28 30 30 29 32 30 30 29 29 27 28 30 31 31 30 32 32 32 32 30 31 31 30 30 30 31 26 27 28 27 29 28 28 32 32 32 31 30 27 27 28 26 27 25 24 25 23 19
33 31 29 29 27 29 30 31 32 32 31 31 31 28 26 26 27 29 29 30 31 32 30 30 31 31 31 30 30 29 28 32 32 31 31 32 32 30 32 32 32 33 32 30 28 27 26 26 25 23 21 21 21 20
31 29 24 22 25 29 30 30 30 30 30 29 28 29 28 28 25 26 28 29 31 30 31 31 30 30 31 31 32 32 31 26 27 30 32 32 32 32 30 30 33 33 29 27 27 26 23 23 21 20 21 21 21 21
30 27 25 24 25 27 28 26 26 26 28 27 27 28 25 26 22 26 27 29 30 31 31 31 32 32 32 32 31 31 29 32 32 32 32 32 33 30 31 32 30 28 25 25 23 23 21 21 21 20 21 21 21 20
MSLP
999.72 1000.29 1000.64 1001.51 1002.51 1003.14 1003.95 1005.18 1006.30 1007.32 1008.76 1009.76 1010.79 1011.86 1012.79 1013.81 1014.75 1015.52 1016.20 1016.38 1016.81 1017.19 1017.02 1016.88 1016.72 1016.36 1016.00 1015.77 1015.93 1015.31 1015.97 1016.50 1017.43 1018.53 1019.08 1019.06 1018.50 1017.61 1016.98 1016.71 1017.49 1018.62 1019.81 1020.28 1020.65 1019.93 1017.92 1014.86 1014.66 1014.81 1015.23 1015.59 1016.14 1016.92
999.86 1000.64 1001.09 1001.73 1002.66 1003.59 1004.42 1005.53 1006.73 1007.79 1008.74 1009.78 1010.82 1011.79 1012.83 1013.72 1014.64 1015.41 1016.28 1016.39 1016.75 1017.99 1018.48 1017.86 1017.40 1016.84 1017.06 1017.05 1017.06 1016.09 1015.81 1016.27 1016.84 1017.94 1018.34 1018.38 1018.04 1017.41 1016.98 1016.81 1016.58 1017.78 1017.45 1018.04 1018.35 1017.24 1015.35 1014.40 1014.15 1013.94 1014.44 1015.19 1016.00 1016.85
999.81 1000.59 1001.26 1001.84 1002.73 1003.92 1004.83 1005.81 1007.03 1008.13 1008.97 1009.90 1010.84 1011.86 1012.81 1013.60 1014.53 1015.38 1016.19 1016.66 1017.27 1018.65 1018.67 1018.22 1017.61 1017.55 1017.14 1017.06 1016.92 1016.96 1016.98 1017.33 1016.73 1017.18 1017.32 1017.74 1017.94 1017.13 1017.12 1016.52 1016.06 1015.83 1015.89 1016.36 1016.45 1015.51 1014.74 1014.39 1014.23 1014.32 1014.55 1015.24 1015.86 1016.56
999.78 1000.47 1001.34 1002.14 1002.93 1003.84 1004.92 1006.15 1007.19 1008.12 1009.16 1010.02 1010.87 1011.98 1012.84 1013.64 1014.68 1015.46 1016.02 1016.65 1017.09 1018.51 1019.27 1018.86 1017.98 1017.72 1017.34 1017.27 1017.48 1017.27 1017.56 1017.83 1017.42 1017.24 1017.49 1017.65 1017.65 1016.61 1016.47 1016.09 1015.84 1015.31 1015.06 1015.18 1015.00 1014.68 1014.17 1013.87 1013.80 1013.92 1014.46 1014.79 1015.78 1016.60
999.69 1000.53 1001.39 1002.30 1003.08 1004.11 1005.20 1006.22 1007.31 1008.33 1009.24 1010.16 1011.15 1012.08 1012.95 1013.92 1014.66 1015.70 1016.29 1016.53 1016.67 1017.48 1018.94 1018.81 1017.74 1017.75 1017.53 1017.34 1017.70 1017.61 1017.92 1018.28 1018.20 1017.82 1017.84 1017.65 1017.22 1017.04 1016.77 1016.71 1015.87 1014.82 1014.53 1014.47 1014.62 1014.09 1013.96 1014.02 1013.72 1013.89 1014.54 1015.12 1015.77 1016.64
999.70 1000.52 1001.43 1002.26 1003.09 1004.07 1005.06 1006.22 1007.24 1008.29 1009.18 1010.24 1011.31 1012.09 1012.88 1013.85 1014.83 1015.97 1016.93 1016.99 1016.91 1017.27 1018.90 1019.67 1018.94 1018.14 1017.72 1017.47 1017.75 1017.78 1017.78 1017.75 1017.98 1017.92 1017.99 1017.84 1017.24 1017.51 1017.54 1016.80 1014.95 1014.41 1013.98 1013.95 1013.79 1013.60 1013.72 1013.72 1013.66 1013.61 1014.13 1014.91 1015.72 1016.53
999.59 1000.54 1001.31 1002.19 1003.15 1004.20 1005.22 1006.24 1007.31 1008.40 1009.44 1010.43 1011.38 1012.23 1013.04 1013.99 1014.93 1015.58 1016.36 1016.51 1016.57 1017.52 1019.09 1020.14 1019.37 1018.29 1017.94 1017.79 1018.03 1018.01 1017.80 1017.81 1017.75 1017.86 1018.02 1018.08 1017.78 1017.50 1017.23 1016.32 1015.01 1014.17 1013.88 1013.65 1013.09 1013.47 1013.63 1013.63 1013.72 1013.58 1013.84 1014.51 1015.37 1016.39
999.42 1000.41 1001.30 1002.25 1003.28 1004.20 1005.42 1006.54 1007.43 1008.53 1009.42 1010.42 1011.32 1012.43 1013.29 1014.21 1015.18 1015.61 1015.56 1015.65 1016.27 1017.95 1019.14 1020.22 1019.34 1019.00 1018.24 1018.19 1018.45 1018.09 1018.25 1018.08 1018.04 1017.80 1017.73 1017.81 1017.55 1017.08 1016.01 1014.66 1014.35 1014.10 1013.63 1013.15 1012.70 1012.85 1013.27 1013.27 1013.25 1013.39 1013.74 1014.62 1015.66 1016.48
999.04 1000.07 1001.18 1002.33 1003.34 1004.39 1005.30 1006.41 1007.60 1008.64 1009.51 1010.66 1011.70 1012.61 1013.58 1014.42 1014.93 1015.23 1015.80 1016.35 1016.62 1017.89 1018.75 1019.32 1018.96 1018.73 1018.53 1018.10 1018.21 1018.23 1018.16 1018.56 1018.08 1017.90 1017.59 1017.69 1016.84 1015.49 1014.04 1013.75 1013.35 1013.09 1012.80 1012.24 1012.37 1012.54 1012.73 1012.92 1013.03 1013.15 1013.86 1014.78 1015.54 1016.49
998.73 999.87 1001.07 1002.19 1003.21 1004.30 1005.34 1006.31 1007.54 1008.76 1009.76 1011.23 1012.23 1012.98 1013.43 1013.88 1013.93 1015.20 1016.29 1017.31 1017.37 1017.59 1017.89 1017.87 1017.86 1018.36 1018.41 1018.08 1018.40 1018.80 1018.58 1018.63 1018.49 1017.46 1016.94 1016.26 1014.43 1013.59 1013.02 1012.91 1012.58 1012.33 1011.91 1011.86 1012.20 1012.28 1012.48 1012.57 1012.81 1012.99 1013.30 1013.91 1014.83 1015.82
998.36 999.50 1000.70 1001.93 1003.11 1004.18 1005.12 1006.11 1007.37 1008.84 1010.03 1011.22 1012.18 1012.51 1012.62 1012.82 1014.35 1015.29 1016.42 1017.11 1017.22 1017.26 1016.99 1016.43 1016.45 1017.36 1017.53 1017.73 1018.07 1018.18 1018.41 1018.43 1018.07 1017.12 1016.65 1015.05 1012.44 1012.10 1012.02 1011.76 1010.96 1010.76 1011.05 1011.24 1011.38 1011.52 1011.73 1011.99 1012.32 1012.79 1013.25 1013.62 1014.48 1015.68
998.06 999.22 1000.40 1001.56 1002.68 1003.79 1004.94 1006.15 1007.27 1008.63 1009.76 1010.99 1011.32 1011.79 1012.69 1013.44 1014.43 1014.99 1015.53 1016.09 1015.96 1015.44 1014.87 1014.72 1015.10 1015.83 1016.58 1016.80 1017.61 1017.94 1018.01 1017.91 1017.20 1016.08 1015.83 1013.58 1011.60 1011.19 1010.87 1009.95 1010.29 1010.34 1010.39 1010.49 1010.47 1010.66 1010.73 1010.99 1011.20 1011.63 1012.40 1013.16 1014.18 1015.28
997.75 998.89 1000.07 1001.29 1002.52 1003.73 1004.87 1005.97 1007.02 1008.36 1009.57 1010.40 1010.53 1011.91 1012.45 1012.84 1012.87 1013.17 1013.17 1013.82 1013.99 1012.81 1012.24 1013.04 1014.44 1015.07 1015.83 1016.22 1016.78 1017.24 1017.35 1016.90 1016.01 1015.65 1014.40 1012.53 1011.10 1010.41 1009.98 1009.82 1009.78 1009.57 1009.63 1009.72 1009.82 1009.91 1010.14 1010.43 1010.55 1011.02 1011.80 1012.63 1013.90 1015.29
997.36 998.43 999.61 1000.84 1002.08 1003.33 1004.51 1005.72 1006.93 1008.15 1009.17 1009.99 1010.51 1011.37 1011.75 1011.48 1011.30 1010.80 1010.95 1010.64 1010.59 1010.58 1010.80 1011.72 1013.14 1014.20 1014.93 1015.78 1016.06 1016.33 1016.17 1015.72 1015.22 1013.99 1012.55 1011.97 1010.91 1009.75 1009.43 1009.34 1009.44 1009.29 1009.32 1009.49 1009.62 1009.93 1010.14 1010.22 1010.59 1010.83 1011.45 1012.45 1013.85 1015.56
996.98 998.14 999.16 1000.34 1001.56 1002.82 1004.15 1005.42 1006.66 1007.92 1008.61 1009.92 1010.22 1009.44 1009.67 1009.06 1009.24 1008.88 1008.90 1009.08 1009.20 1009.40 1010.26 1011.22 1012.34 1013.25 1014.32 1014.86 1014.78 1014.84 1014.89 1014.29 1013.11 1012.19 1011.53 1010.10 1009.54 1009.27 1009.19 1009.08 1009.04 1009.07 1009.26 1009.56 1009.82 1010.29 1010.72 1010.55 1010.93 1011.86 1012.42 1013.13 1014.32 1016.01
996.88 998.06 998.86 999.90 1000.88 1002.33 1003.94 1005.55 1007.20 1008.60 1008.99 1009.17 1008.88 1008.40 1008.17 1008.79 1008.74 1008.57 1008.37 1008.38 1008.20 1008.51 1009.64 1010.74 1011.90 1012.80 1013.13 1013.27 1013.61 1013.30 1012.88 1012.09 1011.52 1010.63 1009.80 1009.28 1009.08 1008.73 1008.61 1008.68 1008.77 1008.90 1009.29 1009.78 1010.30 1010.89 1011.36 1011.81 1012.24 1012.86 1013.67 1014.54 1015.45 1016.19
996.75 996.90 998.02 999.47 1000.89 1002.07 1003.40 1005.21 1007.20 1007.73 1008.01 1007.97 1007.56 1007.31 1007.06 1007.26 1007.08 1007.14 1007.39 1007.17 1007.17 1008.06 1008.98 1010.16 1011.15 1011.47 1011.84 1012.15 1012.29 1011.59 1010.88 1010.03 1010.03 1009.52 1008.99 1008.53 1008.47 1008.22 1008.35 1008.58 1008.93 1009.10 1009.64 1010.27 1010.94 1011.60 1012.13 1012.61 1013.12 1013.82 1014.78 1015.88 1016.37 1017.20
995.77 996.81 997.81 999.32 1000.76 1002.46 1003.96 1005.69 1005.64 1006.06 1006.30 1006.27 1006.30 1005.99 1006.38 1006.22 1006.41 1006.49 1006.57 1006.19 1006.64 1007.05 1007.89 1008.39 1008.97 1010.15 1010.57 1010.63 1010.33 1009.75 1009.51 1009.22 1009.02 1008.80 1008.40 1008.00 1007.89 1007.82 1008.04 1008.63 1009.01 1009.39 1010.08 1010.80 1011.38 1012.08 1012.68 1013.26 1013.91 1014.63 1015.33 1016.09 1016.88 1017.81
995.47 996.72 998.01 999.37 1000.36 1002.35 1003.84 1004.69 1004.54 1004.49 1004.62 1004.86 1004.99 1004.88 1005.18 1005.36 1005.10 1005.21 1005.42 1005.40 1005.28 1005.87 1007.04 1007.81 1008.42 1008.62 1008.52 1007.92 1008.12 1008.58 1008.34 1008.28 1008.33 1007.98 1007.66 1007.48 1007.40 1007.81 1008.23 1008.73 1009.24 1009.77 1010.47 1011.14 1011.82 1012.44 1012.96 1013.36 1013.94 1014.84 1015.55 1016.35 1017.05 1017.88
995.59 996.78 998.14 999.52 1000.53 1001.88 1002.97 1003.52 1003.63 1003.51 1003.60 1003.60 1003.99 1004.43 1004.67 1004.50 1004.53 1004.76 1004.97 1005.07 1005.13 1005.58 1006.60 1006.70 1006.27 1006.36 1006.58 1006.91 1006.88 1007.10 1006.89 1006.70 1007.20 1007.54 1008.06 1007.95 1007.93 1008.10 1008.56 1009.02 1009.55 1010.01 1010.84 1011.51 1012.10 1012.58 1013.24 1013.77 1014.26 1014.94 1015.58 1016.23 1016.92 1017.66
995.35 996.68 998.33 999.51 1000.70 1001.12 1001.78 1001.96 1002.78 1003.27 1002.64 1003.03 1003.33 1003.82 1004.39 1004.16 1004.21 1004.54 1004.52 1004.67 1005.23 1005.20 1006.06 1005.49 1005.52 1005.84 1005.79 1006.03 1005.79 1005.81 1006.05 1006.21 1006.47 1006.86 1007.33 1008.14 1008.22 1008.30 1008.89 1009.28 1009.72 1010.23 1010.75 1011.48 1012.15 1012.70 1013.10 1013.59 1014.27 1014.86 1015.47 1016.18 1016.76 1017.41
995.38 996.75 997.88 999.15 999.98 1000.58 1000.92 1001.07 1001.34 1002.18 1002.90 1003.00 1003.01 1003.37 1004.04 1004.33 1004.40 1004.28 1004.87 1004.93 1004.68 1004.38 1004.43 1004.58 1004.72 1005.14 1005.54 1005.45 1005.33 1005.20 1005.49 1005.73 1006.08 1006.37 1006.67 1007.11 1008.05 1008.47 1008.85 1009.12 1009.75 1010.49 1010.78 1011.26 1011.80 1012.31 1012.80 1013.30 1013.94 1014.67 1015.36 1016.03 1016.58 1017.29
996.06 997.10 998.23 999.22 999.90 1000.25 1001.19 1000.98 1001.47 1002.19 1002.73 1002.76 1002.85 1003.52 1004.09 1004.31 1004.02 1003.59 1004.15 1004.01 1003.73 1003.19 1003.34 1003.69 1003.90 1004.22 1004.75 1004.89 1005.03 1005.18 1005.42 1005.76 1006.34 1006.54 1006.82 1007.08 1007.44 1007.79 1008.35 1008.96 1009.41 1010.04 1010.77 1011.18 1011.44 1012.12 1012.76 1013.09 1013.77 1014.53 1015.23 1016.01 1016.68 1017.46
996.07 997.36 998.28 999.19 999.67 1000.65 1001.17 1001.27 1001.48 1001.99 1002.46 1002.76 1003.15 1003.51 1004.08 1004.20 1004.16 1004.13 1003.86 1003.28 1002.88 1002.91 1003.03 1003.14 1003.41 1004.09 1004.48 1004.69 1004.89 1005.16 1005.35 1005.51 1006.19 1006.38 1006.62 1006.99 1007.57 1008.02 1008.28 1008.74 1009.22 1009.54 1009.93 1010.57 1011.22 1011.96 1012.58 1013.10 1013.73 1014.53 1015.30 1016.06 1016.87 1017.62
996.76 998.93 999.20 999.43 999.77 1000.32 1000.77 1000.95 1001.21 1001.60 1001.91 1002.19 1002.58 1003.31 1003.88 1004.28 1004.34 1004.28 1003.49 1002.79 1002.61 1002.71 1002.75 1002.93 1003.14 1003.37 1003.91 1004.17 1004.46 1004.72 1004.90 1005.25 1005.79 1006.17 1006.28 1006.61 1007.23 1007.93 1008.48 1008.85 1009.16 1009.32 1009.70 1010.59 1011.39 1011.95 1012.62 1013.17 1013.87 1014.61 1015.30 1016.07 1016.96 1017.85
997.34 998.38 998.52 998.36 998.91 999.05 999.84 1000.15 1000.48 1000.86 1001.22 1001.90 1002.22 1002.72 1003.47 1003.84 1003.98 1003.40 1002.39 1002.02 1002.07 1002.27 1002.31 1002.37 1002.60 1003.14 1003.34 1003.47 1003.99 1004.24 1004.31 1004.49 1005.14 1005.71 1005.91 1006.27 1006.79 1007.46 1008.24 1008.82 1009.30 1009.76 1009.68 1010.14 1010.94 1011.76 1012.51 1013.14 1013.91 1014.68 1015.49 1016.24 1016.95 1017.75
997.60 997.89 997.67 997.07 997.38 998.09 999.16 999.49 1000.00 1000.50 1001.14 1001.44 1002.08 1002.68 1003.17 1003.65 1003.56 1002.42 1002.13 1002.32 1002.45 1002.46 1002.01 1001.81 1002.05 1002.44 1002.78 1003.26 1003.37 1003.47 1003.53 1004.03 1004.52 1005.02 1005.39 1005.90 1006.38 1006.80 1007.35 1008.10 1008.77 1009.09 1009.31 1009.88 1010.64 1011.34 1012.11 1013.05 1013.92 1014.63 1015.41 1016.08 1016.74 1017.39
997.51 997.56 997.50 997.53 997.74 998.18 998.86 999.68 1000.17 1000.70 1000.57 1000.65 1001.52 1002.21 1002.62 1002.79 1002.66 1002.90 1003.04 1003.18 1003.10 1002.95 1002.69 1002.67 1002.53 1002.62 1002.96 1003.32 1003.63 1003.88 1004.38 1004.66 1005.08 1005.51 1005.98 1006.62 1006.94 1007.05 1007.28 1007.70 1008.09 1008.58 1009.20 1009.75 1010.41 1011.26 1012.13 1012.88 1013.67 1014.44 1015.25 1016.02 1016.60 1017.16
997.74 997.67 997.79 998.45 998.71 999.11 999.53 999.78 999.92 999.95 1000.08 1000.24 1000.91 1001.63 1002.40 1003.07 1003.59 1003.66 1003.73 1003.60 1003.50 1003.42 1003.43 1003.60 1003.76 1003.56 1003.86 1004.14 1004.27 1004.48 1004.70 1004.96 1005.85 1006.40 1006.81 1007.27 1007.78 1008.14 1007.88 1007.87 1008.47 1008.91 1009.46 1010.10 1010.63 1011.28 1012.05 1012.80 1013.55 1014.19 1014.92 1015.67 1016.32 1016.79
998.01 997.93 998.67 999.17 999.58 999.85 1000.20 1000.36 1000.36 1000.56 1000.50 1000.70 1001.10 1001.99 1002.91 1003.73 1004.23 1004.24 1004.13 1004.07 1003.98 1003.88 1003.96 1004.06 1004.21 1004.24 1004.52 1004.72 1005.08 1005.42 1005.60 1005.74 1005.80 1006.25 1006.59 1006.85 1007.32 1007.90 1008.06 1008.22 1008.72 1009.22 1009.76 1010.44 1011.20 1011.90 1012.40 1013.11 1013.75 1014.45 1015.13 1015.79 1016.38 1016.95
998.05 998.45 998.98 999.46 1000.04 1000.38 1000.71 1000.88 1000.89 1000.97 1001.23 1001.55 1001.60 1002.06 1003.08 1003.98 1004.60 1004.76 1004.70 1004.46 1004.13 1004.17 1004.29 1004.38 1004.51 1004.62 1004.74 1004.93 1005.14 1005.50 1005.93 1006.12 1006.12 1006.19 1006.31 1006.68 1007.24 1007.73 1008.14 1008.53 1009.00 1009.54 1010.16 1010.81 1011.43 1012.10 1012.77 1013.45 1014.03 1014.68 1015.33 1015.94 1016.48 1017.00
998.58 998.75 999.11 999.84 1000.58 1000.99 1001.12 1001.11 1001.23 1001.34 1001.63 1001.80 1002.31 1002.80 1003.35 1003.61 1004.39 1004.83 1004.92 1004.65 1004.34 1004.27 1004.28 1004.37 1004.54 1004.75 1004.86 1005.01 1005.19 1005.48 1005.62 1005.88 1006.09 1006.32 1006.63 1006.93 1007.37 1007.87 1008.44 1008.87 1009.41 1009.94 1010.54 1011.08 1011.66 1012.29 1012.88 1013.51 1014.19 1014.80 1015.37 1015.89 1016.38 1016.80
998.73 998.92 999.20 999.90 1000.62 1000.86 1001.09 1001.15 1001.36 1001.62 1001.82 1002.15 1002.54 1002.86 1003.39 1003.70 1004.57 1005.05 1005.06 1004.90 1004.64 1004.30 1004.37 1004.48 1004.72 1004.92 1005.12 1005.29 1005.50 1005.83 1006.01 1006.14 1006.31 1006.60 1006.92 1007.26 1007.68 1008.21 1008.73 1009.32 1009.84 1010.40 1010.91 1011.45 1012.05 1012.69 1013.32 1013.90 1014.47 1014.93 1015.38 1015.80 1016.21 1016.62
Wind_Speed
15 11 16 20 21 18 23 26 25 24 23 23 21 19 18 16 15 6 2 3 4 1 4 8 6 7 6 5 1 5 6 5 3 3 4 4 4 6 5 6 9 8 7 4 3 3 12 10 5 9 7 5 7 6
20 17 10 24 20 20 19 19 20 21 21 21 20 19 18 16 15 7 2 3 4 3 2 3 6 7 6 1 2 5 6 5 6 4 2 3 2 2 5 3 5 5 8 8 10 9 7 5 4 4 7 7 5 7
20 22 19 15 22 24 24 23 22 21 20 20 19 18 18 18 17 8 3 4 4 3 5 3 1 5 7 4 4 3 5 4 4 2 4 4 4 5 4 6 5 5 10 5 5 7 8 11 4 6 6 7 6 7
18 19 22 22 20 21 23 24 22 22 21 20 20 18 18 18 17 8 3 2 5 4 3 5 2 3 3 4 6 2 3 4 4 1 1 2 3 1 3 4 4 6 5 6 4 6 5 1 6 4 2 8 9 8
20 20 21 22 23 23 23 24 23 22 22 20 19 19 18 18 17 6 2 2 3 5 3 4 6 2 5 1 4 3 3 2 3 3 2 2 2 4 3 2 2 2 3 4 6 6 5 5 2 1 8 8 10 9
21 21 22 22 22 23 23 22 22 22 22 21 19 18 17 16 16 5 1 2 2 2 5 3 4 2 3 2 4 5 3 3 4 3 3 2 1 3 1 3 5 5 4 1 4 2 3 7 8 6 9 11 10 10
23 23 23 23 23 22 22 23 22 21 21 21 20 19 19 19 9 5 6 4 11 5 4 1 4 2 2 2 1 1 1 0 2 2 2 3 2 3 2 5 5 8 8 11 12 3 4 4 6 6 7 11 13 9
25 25 24 24 24 24 24 23 23 22 21 21 20 18 18 18 8 4 2 10 8 6 4 1 3 4 1 1 1 2 2 1 2 3 2 2 2 2 5 7 10 13 14 17 18 11 7 7 6 6 4 12 12 10
26 25 25 25 25 25 25 24 23 23 22 18 17 17 7 3 3 3 12 10 3 5 6 4 2 4 2 1 2 2 2 1 2 2 3 4 3 9 7 7 8 8 12 13 11 11 11 9 10 9 10 11 13 9
27 27 26 26 26 26 26 26 25 24 26 22 7 3 3 4 15 12 5 2 2 2 1 4 3 3 3 2 2 2 1 2 2 5 4 5 12 12 10 7 10 11 12 10 10 12 7 7 8 9 8 15 14 13
27 27 28 27 28 27 27 27 27 28 23 5 3 2 3 17 4 2 4 4 3 3 4 5 10 6 3 3 2 3 2 2 3 6 6 5 6 8 12 17 22 22 19 15 12 10 9 9 9 7 5 11 12 14
28 29 29 29 29 29 28 28 29 17 5 9 6 4 5 3 3 6 6 5 5 7 6 7 7 5 3 4 3 3 4 3 6 3 3 6 3 6 11 15 12 13 15 16 16 16 15 12 13 10 10 13 14 14
29 30 31 30 30 31 31 29 30 21 16 3 3 4 3 4 7 7 9 7 5 5 7 8 8 6 3 3 3 4 4 5 1 0 6 6 4 6 7 6 6 7 8 9 10 8 7 7 7 9 11 11 15 15
26 28 32 33 32 32 31 31 30 24 9 3 5 9 7 5 5 5 10 9 8 5 11 14 8 5 4 4 4 6 6 3 4 5 6 3 7 11 7 6 5 9 9 9 7 5 8 9 8 8 14 16 17 15
27 27 27 32 34 34 33 33 33 14 3 3 3 6 8 5 4 9 10 9 3 8 9 10 4 5 3 3 5 4 5 7 7 5 6 6 9 7 7 7 9 9 6 3 2 3 3 1 9 8 8 12 14 15
24 21 15 27 34 36 34 31 19 4 1 3 6 4 3 7 2 4 5 8 5 9 9 5 5 3 4 4 5 9 6 7 5 5 5 4 6 8 8 8 6 5 5 4 5 5 6 7 10 11 11 12 12 15
27 3 25 30 31 32 33 12 4 5 7 6 6 4 2 5 12 8 11 6 8 8 9 5 8 10 4 4 6 6 6 9 4 5 3 4 6 8 6 6 6 5 6 7 6 6 6 8 11 12 13 8 10 10
4 13 30 30 24 21 4 2 5 6 7 4 6 5 6 3 5 4 5 5 9 9 8 6 6 5 6 6 5 4 6 4 6 6 6 7 7 5 7 7 6 5 6 7 7 7 8 9 9 7 11 11 11 10
14 18 33 34 13 7 4 2 2 4 3 5 3 4 5 7 4 5 8 10 7 10 6 3 5 5 9 5 5 4 4 5 6 6 5 5 6 8 7 7 6 5 7 8 8 6 6 6 7 8 8 8 8 7
23 33 36 28 17 4 4 3 4 2 4 5 3 4 4 4 5 4 8 8 10 8 6 10 13 3 5 5 5 6 6 6 4 2 1 1 2 6 6 6 5 6 6 7 6 6 6 4 5 8 8 8 9 9
24 24 35 19 3 2 3 4 4 3 2 3 4 6 3 2 3 3 5 4 2 6 5 4 4 4 4 3 4 5 6 4 4 6 6 4 4 5 5 4 5 5 5 6 7 5 6 5 6 7 7 6 6 7
12 31 6 3 4 3 3 1 6 5 3 2 5 4 3 2 2 4 3 3 7 6 7 5 4 4 3 4 4 4 4 5 4 4 6 8 5 4 4 5 5 4 5 5 7 6 6 5 8 8 6 6 7 6
16 5 4 4 3 3 3 2 5 4 3 3 3 3 2 2 4 3 4 5 5 5 6 7 10 6 6 5 4 3 5 7 4 4 4 4 4 4 5 5 5 6 5 3 5 6 5 8 9 8 7 7 8 7
9 5 4 3 3 4 3 3 3 4 3 3 5 4 4 2 1 1 4 4 4 4 5 7 5 4 2 5 5 5 5 5 4 4 5 5 4 4 5 5 4 5 5 5 6 5 6 8 11 9 9 9 8 8
8 3 4 4 3 6 5 5 4 3 4 4 6 4 4 3 3 3 4 4 5 6 5 6 5 6 6 6 4 5 7 6 5 5 5 5 4 4 3 4 4 5 6 7 6 8 8 9 9 10 9 10 10 8
5 3 5 4 4 5 5 4 5 5 4 3 3 5 4 3 3 6 5 5 4 5 7 9 9 6 5 5 5 5 6 5 5 4 4 5 7 8 7 6 4 2 3 7 9 10 11 10 10 12 9 9 9 9
5 4 4 4 5 5 4 3 3 4 4 5 4 4 4 5 6 5 1 4 2 2 2 3 4 5 4 4 1 1 4 5 5 4 4 5 5 6 8 9 8 5 7 9 9 11 12 11 11 10 8 5 7 8
1 3 4 1 4 3 5 4 5 4 4 4 6 7 10 9 6 2 2 1 2 3 4 4 4 4 4 4 3 6 6 6 7 7 6 6 4 2 4 4 5 10 8 9 9 9 10 10 11 9 9 7 6 5
1 1 5 5 5 3 2 2 4 1 2 5 6 4 3 2 2 2 2 2 3 2 3 4 4 4 6 5 5 4 3 6 7 7 7 4 2 2 1 7 7 7 7 8 9 9 9 8 9 8 8 7 5 4
1 2 4 2 3 2 2 3 2 2 3 2 3 3 3 2 2 2 2 1 1 1 2 3 2 2 4 4 4 3 3 2 0 5 6 6 5 3 3 8 8 7 7 8 8 8 10 8 8 6 7 7 6 4
2 3 3 3 2 2 2 2 1 2 2 2 3 4 4 3 1 2 2 3 1 3 3 3 2 2 3 4 4 5 3 1 3 4 4 6 7 6 7 7 7 7 8 9 9 9 10 9 8 8 8 8 8 7
1 4 4 4 3 3 3 3 3 2 2 2 2 2 3 3 2 1 3 3 2 2 2 3 4 3 2 2 3 2 4 4 3 3 7 6 7 8 8 7 7 8 8 9 9 10 10 9 7 7 7 8 8 8
3 4 4 4 4 4 1 2 2 2 1 2 2 2 2 3 3 2 1 3 3 2 4 4 5 4 5 5 5 5 5 4 6 6 8 8 11 10 8 8 7 7 8 8 7 8 8 10 8 8 8 8 8 7
Wind_Direction
172 184 176 165 159 149 149 155 156 156 158 158 158 158 159 161 156 136 165 97 97 24 19 21 15 22 347 21 161 215 72 340 67 148 138 208 181 226 213 194 161 157 155 176 155 205 255 238 290 193 200 150 142 141
173 174 174 166 161 157 151 148 152 150 154 155 157 154 158 157 154 146 131 107 89 49 265 288 309 14 41 43 264 323 164 158 175 131 190 190 205 222 184 226 160 176 176 179 177 206 233 271 173 133 158 148 141 119
168 170 171 150 158 163 162 162 165 162 155 155 155 156 156 157 159 152 125 124 76 85 317 48 55 336 356 9 3 44 21 332 8 15 173 205 209 153 191 230 220 220 189 187 128 246 241 229 176 167 169 163 158 139
164 159 162 165 155 151 153 151 151 150 152 152 152 156 156 156 159 165 130 153 95 111 138 278 277 344 300 46 326 318 116 341 287 348 229 197 175 187 226 218 162 201 176 208 243 273 340 245 215 259 135 125 120 127
168 163 161 160 158 156 155 152 152 154 152 150 152 155 156 159 162 149 78 190 168 128 161 289 314 104 292 210 270 288 238 180 319 332 3 257 300 34 322 50 253 206 216 152 214 217 172 226 322 50 146 162 155 141
174 168 164 161 158 157 153 154 154 153 151 151 156 156 155 154 144 105 56 293 224 93 88 358 292 287 332 194 275 287 232 213 182 174 187 267 247 103 194 233 215 246 287 241 250 180 243 259 271 239 165 164 159 149
174 171 167 162 159 157 156 154 154 155 154 154 158 161 161 156 143 158 174 204 134 89 84 358 284 314 329 208 190 221 2 22 130 179 181 191 220 120 195 207 294 308 307 299 285 346 307 252 252 233 170 168 146 142
174 171 167 164 161 157 157 157 155 156 153 154 155 161 151 146 91 248 334 140 116 88 89 262 263 324 210 174 159 193 127 81 306 186 332 179 314 175 247 204 214 234 250 267 272 265 232 265 281 262 160 137 143 150
173 170 167 165 163 161 157 156 158 157 149 150 153 143 116 146 140 184 101 139 79 124 157 174 206 239 189 160 85 24 85 103 259 198 208 139 219 223 204 197 207 217 222 241 259 257 261 252 258 250 156 163 157 163
173 170 168 166 164 162 160 158 158 156 145 141 123 109 144 189 131 101 89 132 225 306 142 180 178 199 201 128 115 107 146 145 227 236 180 209 242 242 243 261 276 262 252 243 252 267 265 261 246 244 211 182 176 170
172 170 169 168 166 165 162 161 161 155 135 150 128 169 196 126 81 129 139 177 153 201 189 204 193 144 232 148 138 156 158 157 229 250 176 247 259 233 225 234 237 244 258 260 256 253 251 242 244 251 243 170 160 152
174 173 170 169 168 165 164 164 163 151 113 161 160 117 111 109 125 153 176 169 199 203 189 190 173 143 181 138 120 195 169 186 246 196 154 255 199 174 213 233 243 242 247 252 250 250 253 247 243 227 180 164 162 155
178 177 176 172 170 169 168 166 164 134 134 150 95 103 152 149 177 194 157 151 193 212 178 147 158 137 133 173 138 159 196 221 208 221 231 227 199 242 235 228 255 247 238 244 240 224 236 253 245 170 169 154 142 144
176 177 179 175 173 170 167 167 157 142 148 110 159 152 202 158 208 187 177 179 213 163 154 161 154 139 158 158 168 161 213 152 247 234 224 223 220 228 250 251 249 260 264 266 249 256 261 264 212 173 155 145 143 144
179 180 180 177 175 171 167 171 162 160 101 159 195 197 190 185 219 196 198 189 193 153 159 145 89 110 138 178 181 183 172 229 218 202 226 224 225 220 229 241 247 251 203 183 216 244 304 152 132 109 123 133 126 128
164 165 174 175 170 166 166 165 161 71 116 182 230 182 205 171 217 214 177 194 199 157 146 134 123 156 193 176 174 202 204 207 224 225 227 224 231 239 243 252 231 160 155 135 122 132 108 96 117 113 101 116 128 134
162 158 156 166 170 166 162 142 98 177 167 194 208 214 195 194 196 191 201 184 187 162 162 132 165 190 144 189 199 205 204 226 215 257 241 219 242 240 195 163 149 143 129 134 119 114 110 111 113 117 119 124 123 124
144 150 151 159 157 157 42 127 169 148 173 185 186 191 190 185 171 181 193 187 178 189 174 184 154 182 173 189 225 232 244 224 225 224 242 253 259 176 152 153 147 140 133 134 131 130 126 128 126 121 127 128 120 124
158 150 154 157 129 109 130 153 239 157 149 152 205 185 172 207 207 182 185 200 204 182 151 169 215 195 210 209 182 222 219 206 223 232 227 226 172 149 144 136 142 137 132 141 142 146 149 143 135 140 140 140 141 147
159 155 155 140 139 109 129 145 199 175 169 176 165 179 188 193 186 181 195 201 198 208 201 202 216 211 171 220 200 202 216 213 185 184 255 271 169 131 143 149 155 143 132 129 126 128 134 129 121 140 149 149 150 161
139 153 141 140 103 117 140 166 121 187 123 157 168 142 195 119 142 175 204 173 184 161 233 234 174 225 202 188 210 206 214 195 208 187 194 176 191 146 146 160 157 141 148 146 149 157 145 155 144 150 152 149 145 155
121 135 117 113 104 154 112 261 124 127 92 250 129 117 133 142 195 146 254 215 220 222 198 199 189 173 191 191 208 176 161 114 121 98 81 114 145 168 173 171 151 157 155 157 160 162 161 154 145 149 141 149 144 142
114 95 72 74 105 74 85 335 95 152 139 172 75 96 114 197 209 137 192 203 221 203 194 205 214 187 189 189 175 155 156 154 159 152 155 155 153 147 142 168 159 150 151 188 145 149 153 143 139 140 135 133 135 132
73 71 97 102 81 93 119 144 118 114 120 159 155 146 153 174 6 112 232 207 225 168 173 185 142 141 117 163 180 184 193 157 181 163 176 152 157 179 162 170 163 164 159 143 141 137 137 140 137 138 141 136 135 143
94 125 125 130 147 128 144 145 146 142 153 176 151 130 150 163 173 218 234 231 184 189 178 177 173 179 169 193 197 204 187 170 175 182 207 158 130 107 132 154 165 168 146 136 145 140 140 141 142 148 147 146 148 149
89 187 191 150 147 126 150 132 149 169 132 129 143 115 161 165 169 240 220 182 179 170 184 192 192 181 200 169 170 196 204 174 152 173 195 168 163 163 166 163 161 260 164 152 149 148 148 150 152 154 149 146 147 145
136 180 196 222 145 121 91 93 128 111 143 160 141 145 130 179 228 245 98 15 57 325 0 108 146 160 170 191 148 45 125 130 142 163 145 139 152 160 164 171 183 188 149 144 151 155 154 155 155 155 151 144 161 156
142 219 136 20 87 77 109 106 134 169 188 165 141 166 174 199 218 57 52 19 340 9 54 48 54 92 95 95 106 109 90 92 83 79 69 44 29 94 124 118 132 135 139 145 142 143 151 152 156 154 153 155 162 162
130 104 78 44 52 49 96 150 177 99 355 169 166 170 139 56 22 24 9 5 319 36 59 61 28 64 72 66 61 52 91 129 124 140 152 154 127 332 47 122 126 124 129 128 122 132 138 136 147 149 148 141 149 133
133 84 86 91 150 153 81 344 60 9 12 50 100 103 99 77 25 332 341 332 275 87 92 110 117 94 127 125 123 86 40 30 88 147 172 175 163 131 126 126 128 128 127 128 124 122 113 112 116 113 120 131 136 130
94 82 95 94 97 79 105 94 18 60 52 53 12 70 98 127 134 31 14 337 353 120 132 139 138 136 148 151 156 153 165 105 125 110 115 120 134 130 130 131 132 132 136 134 136 136 136 135 139 138 137 140 151 151
158 183 143 118 113 123 163 190 168 133 148 132 107 112 168 166 108 74 358 313 220 179 168 156 160 150 116 99 107 118 131 142 138 119 133 132 134 133 130 125 134 148 139 135 134 138 135 135 135 141 152 157 159 156
106 74 88 105 127 162 148 124 93 88 71 82 71 74 41 60 103 112 234 344 330 54 107 96 91 90 93 93 93 93 101 120 110 120 124 129 137 127 130 144 139 130 123 118 118 128 130 134 138 139 142 145 151 151